Date String (YYYY-MM-DD hh:mm:ss) UTC,Instrument flags,Ambient pressure (hPa),Sample flow (lpm),Bypass flow (lpm),Sample temperature (°C),Ambient temperature (°C),ASC tube jacket temperature (°C),LED temperature (°C),Box temperature (°C),Sample RH (%),Span deviation,Mass concentration (μg/m³),Mass concentration (μg/m³),Mass concentration (μg/m³)
DateTimeUTC,F1_M11,P_M11,Q1_M11,Q2_M11,T1_M11,T2_M11,T3_M11,T4_M11,T5_M11,U1_M11,ZSPAN_M11,X2_M11,X0_M11,X1_M11
2023-03-11 13:00:00,,0813.4,5.00,0.00,21.9,22.0,00.0,30.5,23.8,22.6,-001.8,0003.70,0008.86,0003.44
2023-03-11 13:01:00,,0813.4,5.01,0.00,22.0,22.6,00.0,30.6,24.0,22.4,-001.7,0003.67,0008.86,0003.39
2023-03-11 13:02:00,,0813.5,5.00,0.00,22.0,22.2,00.0,30.6,24.0,22.3,-001.8,0003.61,0007.98,0003.32
2023-03-11 13:03:00,,0813.5,5.01,0.00,22.1,21.8,00.0,30.6,24.0,22.3,-002.0,0003.52,0006.94,0003.22
2023-03-11 13:04:00,,0813.4,5.00,0.00,22.1,21.6,00.0,30.7,23.9,22.2,-002.5,0003.41,0006.73,0003.14
2023-03-11 13:05:00,,0813.5,4.99,0.00,22.1,21.4,00.0,30.7,23.9,22.1,-003.0,0003.37,0005.83,0003.12
2023-03-11 13:06:00,,0813.6,5.00,0.00,22.1,21.2,00.0,30.7,23.9,22.1,-002.5,0003.36,0005.44,0003.11
2023-03-11 13:07:00,,0813.7,4.99,0.00,22.1,21.1,00.0,30.7,23.9,22.0,-002.3,0003.38,0005.54,0003.12
2023-03-11 13:08:00,,0813.5,5.01,0.00,22.1,21.0,00.0,30.7,23.9,21.5,-002.5,0003.43,0005.85,0003.15
2023-03-11 13:09:00,,0813.3,5.00,0.00,22.1,20.9,00.0,30.8,23.9,21.4,-002.2,0003.47,0006.27,0003.16
2023-03-11 13:10:00,,0813.5,5.00,0.00,22.1,20.7,00.0,30.8,23.9,20.9,-000.2,0003.45,0006.27,0003.13
2023-03-11 13:11:00,,0813.4,5.00,0.00,22.1,20.6,00.0,30.8,23.9,21.0,0000.0,0003.48,0006.31,0003.15
2023-03-11 13:12:00,,0813.4,5.00,0.00,22.1,20.6,00.0,30.8,23.9,21.5,0000.0,0003.44,0006.27,0003.12
2023-03-11 13:13:00,,0813.4,5.00,0.00,22.1,20.6,00.0,30.8,23.9,21.6,-001.6,0003.39,0006.12,0003.09
2023-03-11 13:14:00,,0813.4,5.01,0.00,22.1,20.5,00.0,30.8,23.8,21.6,-002.2,0003.37,0006.00,0003.10
2023-03-11 13:15:00,,0813.4,4.99,0.00,22.0,20.5,00.0,30.8,23.8,21.6,-001.9,0003.36,0005.75,0003.08
2023-03-11 13:16:00,,0813.4,5.01,0.00,22.0,20.5,00.0,30.8,23.8,21.7,-001.7,0003.35,0005.46,0003.06
2023-03-11 13:17:00,,0813.3,5.00,0.00,22.0,20.5,00.0,30.8,23.8,21.7,-001.4,0003.34,0005.50,0003.04
2023-03-11 13:18:00,,0813.3,5.00,0.00,22.0,20.4,00.0,30.8,23.8,21.7,-000.4,0003.33,0005.89,0003.03
2023-03-11 13:19:00,,0813.3,4.99,0.00,22.0,20.4,00.0,30.8,23.8,21.8,-000.6,0003.27,0006.33,0002.95
2023-03-11 13:20:00,,0813.3,4.99,0.00,22.0,20.4,00.0,30.8,23.8,21.7,-000.0,0003.21,0005.96,0002.84
2023-03-11 13:21:00,,0813.3,4.99,0.00,22.0,20.5,00.0,30.8,23.8,21.6,0000.0,0003.20,0006.12,0002.83
2023-03-11 13:22:00,,0813.3,5.00,0.00,22.0,20.5,00.0,30.8,23.8,21.6,0000.0,0003.16,0006.85,0002.77
2023-03-11 13:23:00,,0813.2,5.00,0.00,22.0,20.5,00.0,30.8,23.8,21.8,0000.0,0003.13,0007.29,0002.74
2023-03-11 13:24:00,,0813.1,5.01,0.00,22.0,20.5,00.0,30.8,23.8,21.8,0000.0,0003.14,0007.35,0002.77
2023-03-11 13:25:00,,0813.2,5.00,0.00,22.0,20.5,00.0,30.7,23.8,21.8,0000.0,0003.13,0008.01,0002.75
2023-03-11 13:26:00,,0813.2,4.99,0.00,22.0,20.4,00.0,30.7,23.8,21.7,0000.0,0003.16,0008.09,0002.78
2023-03-11 13:27:00,,0813.3,5.00,0.00,22.0,20.4,00.0,30.7,23.8,21.8,0000.0,0003.17,0007.99,0002.81
2023-03-11 13:28:00,,0813.4,5.00,0.00,22.0,20.5,00.0,30.7,23.8,21.5,0000.0,0003.23,0008.04,0002.87
2023-03-11 13:29:00,,0813.6,5.02,0.00,22.0,21.3,00.0,30.7,24.0,21.3,0000.0,0003.30,0007.98,0002.98
2023-03-11 13:30:00,,0814.3,4.94,0.00,22.2,22.4,00.0,30.7,24.2,21.0,0000.0,0003.35,0007.59,0003.08
2023-03-11 13:31:00,,0813.9,5.00,0.00,22.3,22.9,00.0,30.8,24.4,20.8,-000.7,0003.39,0007.57,0003.17
2023-03-11 13:32:00,,0814.0,4.99,0.00,22.3,22.6,00.0,30.8,24.3,20.6,-002.3,0003.49,0008.13,0003.24
2023-03-11 13:33:00,,0814.1,4.99,0.00,22.3,22.2,00.0,30.9,24.3,20.5,-001.6,0003.55,0007.97,0003.29
2023-03-11 13:34:00,,0814.3,5.00,0.00,22.4,21.9,00.0,30.9,24.2,20.7,-001.3,0003.55,0007.72,0003.27
2023-03-11 13:35:00,,0814.0,4.99,0.00,22.4,21.6,00.0,30.9,24.2,20.8,-001.2,0003.55,0007.78,0003.26
2023-03-11 13:36:00,,0814.0,5.00,0.00,22.4,21.4,00.0,30.9,24.2,20.9,-001.3,0003.56,0007.53,0003.27
2023-03-11 13:37:00,,0814.1,4.99,0.00,22.4,21.3,00.0,31.0,24.2,21.1,-001.9,0003.51,0007.44,0003.24
2023-03-11 13:38:00,,0814.0,4.99,0.00,22.3,21.1,00.0,31.0,24.1,20.8,-001.8,0003.44,0007.41,0003.19
2023-03-11 13:39:00,,0814.2,5.00,0.00,22.3,21.0,00.0,31.0,24.1,20.9,-001.6,0003.36,0007.38,0003.10
2023-03-11 13:40:00,,0814.2,5.01,0.00,22.3,20.9,00.0,31.0,24.1,21.2,-001.6,0003.26,0007.10,0002.96
2023-03-11 13:41:00,,0814.3,5.00,0.00,22.3,20.8,00.0,31.0,24.1,21.2,-001.5,0003.20,0006.98,0002.85
2023-03-11 13:42:00,,0814.5,4.99,0.00,22.3,20.8,00.0,31.0,24.1,21.1,-001.0,0003.15,0006.84,0002.75
2023-03-11 13:43:00,,0814.4,5.01,0.00,22.3,20.8,00.0,31.0,24.1,21.1,-000.8,0003.00,0005.61,0002.60
2023-03-11 13:44:00,,0814.4,5.00,0.00,22.3,20.7,00.0,31.0,24.1,21.2,-000.4,0002.81,0005.22,0002.46
2023-03-11 13:45:00,,0814.6,4.99,0.00,22.3,20.7,00.0,31.0,24.1,21.4,-000.6,0002.74,0005.40,0002.41
2023-03-11 13:46:00,,0814.8,5.00,0.00,22.3,20.7,00.0,31.0,24.1,21.9,0000.0,0002.67,0005.11,0002.34
2023-03-11 13:47:00,,0814.4,5.00,0.00,22.3,20.7,00.0,31.0,24.0,21.9,0000.0,0002.60,0004.25,0002.27
2023-03-11 13:48:00,,0814.3,5.00,0.00,22.3,20.7,00.0,31.0,24.0,21.5,0000.0,0002.56,0004.39,0002.21
2023-03-11 13:49:00,,0814.4,5.00,0.00,22.2,20.7,00.0,31.0,24.0,21.6,0000.0,0002.45,0004.23,0002.11
2023-03-11 13:50:00,,0814.4,5.01,0.00,22.2,20.7,00.0,31.0,24.0,21.8,0000.0,0002.33,0003.85,0002.03
2023-03-11 13:51:00,,0814.4,5.00,0.00,22.2,20.7,00.0,31.0,24.0,21.7,0000.0,0002.26,0004.27,0001.97
2023-03-11 13:52:00,,0814.4,4.99,0.00,22.2,20.6,00.0,31.0,24.0,21.7,0000.0,0002.18,0005.61,0001.88
2023-03-11 13:53:00,,0814.5,4.99,0.00,22.2,20.6,00.0,31.0,24.0,21.6,0000.0,0002.06,0005.47,0001.78
2023-03-11 13:54:00,,0814.4,5.00,0.00,22.2,20.5,00.0,31.0,24.0,21.6,0000.0,0001.97,0005.33,0001.74
2023-03-11 13:55:00,,0814.3,5.00,0.00,22.2,20.5,00.0,31.0,23.9,21.6,0000.0,0002.00,0005.35,0001.74
2023-03-11 13:56:00,,0814.3,5.01,0.00,22.2,20.5,00.0,30.9,23.9,21.5,0000.0,0002.00,0004.77,0001.72
2023-03-11 13:57:00,,0814.4,4.99,0.00,22.2,20.5,00.0,30.9,23.9,21.6,0000.0,0002.02,0004.94,0001.72
2023-03-11 13:58:00,,0814.5,5.00,0.00,22.1,20.4,00.0,30.9,23.9,21.7,0000.0,0002.03,0004.94,0001.74
2023-03-11 13:59:00,,0814.4,4.99,0.00,22.1,20.4,00.0,30.9,23.9,21.7,0000.0,0002.04,0004.74,0001.77
